Regional Weather Roundup
Issued by NWS

Home | Current Version | Previous Version | Graphics & Text | Print | Product List | Glossary On
Versions: 1 2 3 4 5 6 7 8 9 10 11 12 13 14 15 16 17 18 19 20 21 22 23 24 25 26 27 28 29 30 31 32 33 34 35 36 37 38 39 40 41 42 43 44 45 46 47 48 49 50
215
ASUS43 KIND 270559
RWRIN

WEATHER ROUNDUP FOR INDIANA
NATIONAL WEATHER SERVICE INDIANAPOLIS IN
200 AM EDT MON MAR 27 2017

NOTE: "FAIR" INDICATES FEW OR NO CLOUDS BELOW 12,000 FEET WITH NO
SIGNIFICANT WEATHER AND/OR OBSTRUCTIONS TO VISIBILITY.

* - STATION DOES NOT REPORT WEATHER SUCH AS PRECIPITATION OR FOG.

+ - STATION NOT QUALITY CONTROLLED BY THE NATIONAL WEATHER SERVICE.
    USE DATA WITH CAUTION...ESPECIALLY DEWPOINT AND RELATIVE
    HUMIDITY OBSERVATIONS.

INZ001>003-010>013-019-020-270700-
NORTHWEST INDIANA

CITY           SKY/WX    TMP DP  RH WIND       PRES   REMARKS
KNOX *+        CLOUDY    50  37  62 W13       29.90S
MONTICELLO +   CLOUDY    51  49  92 W9        29.92S
6HR MIN TEMP:  51; 6HR MAX TEMP:  57;

VALPARAISO     CLOUDY    52  49  89 SW12      29.90S

$$

LMZ046-743>745-270700-
SOUTHERN LAKE MICHIGAN

STATION/POSITION TIME  TEMP    WIND        PRES    WAVE
                       AIR SEA DIR/SP/G            HT
                 (UTC) (F)     (DEG/KT/KT) (MB)    (FT)
BURNS HARBOR     0540   52     220/  8/ 12 1012.5S
MICHIGAN CITY    0530   50     230/ 13/ 14   N/A

$$

INZ004-005-014>016-021>024-270700-
NORTH CENTRAL INDIANA

CITY           SKY/WX    TMP DP  RH WIND       PRES   REMARKS
GOSHEN         CLOUDY    53  49  86 SW7       29.88F
6HR MIN TEMP:  52; 6HR MAX TEMP:  57; 6HR PCP:  0.24;

PERU/GRISSOM   CLOUDY    52  52 100 W9        29.90F
SOUTH BEND     CLOUDY    51  50  96 SW10      29.89S
6HR MIN TEMP:  48; 6HR MAX TEMP:  52; 6HR PCP: TRACE;


$$

INZ006>009-017-018-025>027-270700-
NORTHEAST INDIANA

CITY           SKY/WX    TMP DP  RH WIND       PRES   REMARKS
ANGOLA *+      CLOUDY    54  46  76 W6        29.88F
FORT WAYNE     CLOUDY    53  50  89 SW8       29.91S
6HR MIN TEMP:  52; 6HR MAX TEMP:  55; 6HR PCP:  0.19;

KENDALLVILLE + CLOUDY    52  51  97 W9        29.89F

$$

INZ028-029-035-036-043>045-051>053-270700-
WEST CENTRAL INDIANA

CITY           SKY/WX    TMP DP  RH WIND       PRES   REMARKS
CRAWFORDSVL +  CLOUDY    51  50  98 SW8       29.94S
6HR MIN TEMP:  50; 6HR MAX TEMP:  55;

LAFAYETTE      CLOUDY    51  51 100 W8        29.93S FOG
6HR MIN TEMP:  51; 6HR MAX TEMP:  57; 6HR PCP:  0.01;

TERRE HAUTE    CLOUDY    51  47  86 CALM      29.95F
6HR MIN TEMP:  49; 6HR MAX TEMP:  58;


$$

INZ030>032-037>040-046>048-054>057-064-065-270700-
CENTRAL INDIANA

CITY           SKY/WX    TMP DP  RH WIND       PRES   REMARKS
CP ATTERBURY + CLEAR     48  45  87 CALM      29.96S
INDIANAPOLIS   CLOUDY    51  48  89 SW8       29.95R
6HR MIN TEMP:  48; 6HR MAX TEMP:  57;

-EAGLE CREEK   PTCLDY    52  47  83 SW6       29.94S
6HR MIN TEMP:  52; 6HR MAX TEMP:  59;

KOKOMO +       CLOUDY    53  51  93 W8        29.93S
6HR MIN TEMP:  53; 6HR MAX TEMP:  58; 6HR PCP: TRACE;

SHELBYVILLE    CLEAR     52  46  80 S7        29.94S
6HR MIN TEMP:  49; 6HR MAX TEMP:  60;


$$

INZ033-034-041-042-049-050-058-059-270700-
EAST CENTRAL INDIANA

CITY           SKY/WX    TMP DP  RH WIND       PRES   REMARKS
MUNCIE         MOCLDY    55  49  80 SW6       29.92F
6HR MIN TEMP:  55; 6HR MAX TEMP:  58; 6HR PCP:  0.12;

RICHMOND +     CLEAR     46  45  93 SW7       29.95F

$$

INZ060-061-067>069-081>083-085>088-270700-
SOUTHWEST INDIANA

CITY           SKY/WX    TMP DP  RH WIND       PRES   REMARKS
EVANSVILLE     CLEAR     49  45  86 NE3       29.96F
6HR MIN TEMP:  49; 6HR MAX TEMP:  61;

HUNTINGBURG *+ CLEAR     48  46  93 SE3       29.98S
6HR MIN TEMP:  47; 6HR MAX TEMP:  59;


$$

INZ062-063-066-070>080-084-089>092-270700-
SOUTH CENTRAL AND SOUTHEAST INDIANA

CITY           SKY/WX    TMP DP  RH WIND       PRES   REMARKS
BLOOMINGTON    CLEAR     49  46  90 SW3       29.95F
6HR MIN TEMP:  49; 6HR MAX TEMP:  59;

MADISON *+     CLOUDY    48  46  93 CALM      29.99F
SEYMOUR +      CLOUDY    48  46  93 S5        29.96F

$$





USA.gov is the U.S. government's official web portal to all federal, state and local government web resources and services.